CW6318 Weather Reports


Display with metric or nautical units.
time (UTC)temp
F
wind
direction
speed
MPH
gust
MPH
rain 1hr
in
rain 24hr
in
rain mn
in
humidity
%
barometer
mb
20260506204502 65 267 3.0 7.0 0.00 0.00 0.00 72 1004.3
20260506204002 65 254 6.0 7.0 0.00 0.00 0.00 70 1004.5
20260506203503 66 256 2.0 8.0 0.00 0.00 0.00 70 1004.4
20260506203002 65 288 1.0 9.0 0.00 0.00 0.00 71 1004.3
20260506202502 65 239 3.0 9.0 0.00 0.00 0.00 70 1004.2
20260506202002 66 241 4.0 7.0 0.00 0.00 0.00 70 1004.2
20260506201503 66 247 0.0 9.0 0.00 0.00 0.00 72 1004.2
20260506201002 66 249 2.0 9.0 0.00 0.00 0.00 71 1004.2
20260506200502 65 256 3.0 6.0 0.00 0.00 0.00 70 1004.2
20260506200004 65 247 0.0 6.0 0.00 0.00 0.00 71 1004.2
20260506195002 65 261 1.0 6.0 0.00 0.00 0.00 71 1004.3
20260506194001 63 255 4.0 7.0 0.00 0.00 0.00 74 1004.3
20260506193003 63 236 2.0 7.0 0.00 0.00 0.00 76 1004.4
20260506192502 63 254 0.0 8.0 0.00 0.00 0.00 76 1004.5
20260506192006 62 278 4.0 8.0 0.00 0.00 0.00 74 1004.6
20260506191504 63 265 1.0 5.0 0.00 0.00 0.00 74 1004.6
20260506191003 63 263 2.0 7.0 0.00 0.00 0.00 76 1004.6
20260506190504 63 243 2.0 8.0 0.00 0.00 0.00 75 1004.6
20260506190006 62 252 1.0 7.0 0.00 0.00 0.00 76 1004.6
20260506185502 62 264 4.0 6.0 0.00 0.00 0.00 76 1004.4
20260506185002 61 225 1.0 6.0 0.00 0.00 0.00 75 1004.4
20260506184502 62 218 3.0 7.0 0.00 0.00 0.00 75 1004.4
20260506183504 62 277 0.0 6.0 0.00 0.00 0.00 74 1004.1
20260506182502 62 258 1.0 4.0 0.00 0.00 0.00 76 1004.0
20260506182002 62 235 2.0 4.0 0.00 0.00 0.00 75 1004.0
20260506181502 62 279 0.0 5.0 0.00 0.00 0.00 74 1004.1
20260506181003 62 262 0.0 5.0 0.00 0.00 0.00 75 1004.1
20260506180014 62 258 0.0 3.0 0.00 0.00 0.00 77 1004.3
20260506175004 61 242 0.0 5.0 0.00 0.00 0.00 76 1004.2
20260506174507 61 300 1.0 8.0 0.00 0.00 0.00 76 1004.2
20260506174004 62 304 2.0 8.0 0.00 0.00 0.00 75 1004.0
20260506173002 62 225 4.0 6.0 0.00 0.00 0.00 75 1003.8
20260506172506 62 255 0.0 4.0 0.00 0.00 0.00 76 1003.7
20260506171503 61 278 0.0 5.0 0.00 0.00 0.00 77 1003.8
20260506171004 61 255 0.0 6.0 0.00 0.00 0.00 76 1003.8
20260506170509 62 72 0.0 2.0 0.00 0.00 0.00 76 1003.9
20260506170005 61 72 0.0 2.0 0.00 0.00 0.00 77 1003.9
20260506165502 60 72 0.0 2.0 0.00 0.00 0.00 76 1003.8
20260506165004 60 72 0.0 2.0 0.00 0.00 0.00 77 1003.9
20260506164004 59 72 0.0 4.0 0.00 0.00 0.00 76 1003.7
20260506163508 59 72 0.0 4.0 0.00 0.00 0.00 77 1003.7
20260506163005 58 235 0.0 1.0 0.00 0.00 0.00 75 1003.8
20260506162502 57 236 0.0 2.0 0.00 0.00 0.00 74 1004.0
20260506161504 57 236 0.0 2.0 0.00 0.00 0.00 74 1004.3
20260506161005 57 236 0.0 2.0 0.00 0.00 0.00 74 1004.5
20260506160005 57 236 0.0 0.0 0.00 0.00 0.00 73 1004.4
20260506154002 56 236 0.0 0.0 0.00 0.00 0.00 72 1004.0
20260506153503 56 236 0.0 1.0 0.00 0.00 0.00 71 1004.1
20260506153003 56 236 0.0 1.0 0.00 0.00 0.00 71 1004.1
20260506152504 56 236 0.0 0.0 0.00 0.00 0.00 70 1004.1
20260506152002 55 236 0.0 0.0 0.00 0.00 0.00 70 1004.1
20260506151503 55 236 0.0 0.0 0.00 0.00 0.00 70 1004.0
20260506151003 55 236 0.0 0.0 0.00 0.00 0.00 69 1003.8
20260506150502 55 236 0.0 0.0 0.00 0.00 0.00 69 1003.8
20260506145507 54 236 0.0 0.0 0.00 0.00 0.00 69 1003.8
20260506145004 54 236 0.0 0.0 0.00 0.00 0.00 69 1003.9
20260506144502 54 236 0.0 0.0 0.00 0.00 0.00 69 1003.9
20260506143502 54 236 0.0 0.0 0.00 0.00 0.00 68 1003.9
20260506143002 54 236 0.0 0.0 0.00 0.00 0.00 68 1003.7
20260506142505 54 236 0.0 0.0 0.00 0.00 0.00 69 1003.8
20260506142003 54 236 0.0 0.0 0.00 0.00 0.00 69 1003.8
20260506141503 54 236 0.0 0.0 0.00 0.00 0.00 69 1003.7
20260506141002 54 236 0.0 0.0 0.00 0.00 0.00 69 1003.7
20260506140502 0 0.0 0.0 0.00 0.00 0.00 1003.7
20260506140002 0 0.0 0.0 0.00 0.00 0.00 1003.7
20260506135001 0 0.0 0.0 0.00 0.00 0.00 1003.5
20260506134504 0 0.0 0.0 0.00 0.00 0.00 1003.5
20260506134002 0 0.0 0.0 0.00 0.00 0.00 1003.5
20260506133003 0 0.0 0.0 0.00 0.00 0.00 1003.4
20260506132502 0 0.0 0.0 0.00 0.00 0.00 1003.4
20260506132009 0 0.0 0.0 0.00 0.00 0.00 1003.4
20260506131502 0 0.0 0.0 0.00 0.00 0.00 1003.4
20260506131001 0 0.0 0.0 0.00 0.00 0.00 1003.4
20260506130002 0 0.0 0.0 0.00 0.00 0.00 1003.3
20260506125501 0 0.0 0.0 0.00 0.00 0.00 1003.3
20260506125002 0 0.0 0.0 0.00 0.00 0.00 1003.4
20260506124511 0 0.0 0.0 0.00 0.00 0.00 1003.3
20260506123501 0 0.0 0.0 0.00 0.00 0.00 1003.2
20260506123002 0 0.0 0.0 0.00 0.00 0.00 1003.1
20260506122001 0 0.0 0.0 0.00 0.00 0.00 1003.1
20260506121504 0 0.0 0.0 0.00 0.00 0.00 1003.0
20260506120503 0 0.0 0.0 0.00 0.00 0.00 1003.0
20260506115004 0 0.0 0.0 0.00 0.00 0.00 1002.8
20260506114504 0 0.0 0.0 0.00 0.00 0.00 1002.7
20260506114003 0 0.0 0.0 0.00 0.00 0.00 1002.6
20260506113502 0 0.0 0.0 0.00 0.00 0.00 1002.6
20260506113002 0 0.0 0.0 0.00 0.00 0.00 1002.5
20260506111502 0 0.0 0.0 0.00 0.00 0.00 1002.3
20260506111003 0 0.0 0.0 0.00 0.00 0.00 1002.3
20260506110502 0 0.0 0.0 0.00 0.00 0.00 1002.3
20260506110002 0 0.0 0.0 0.00 0.00 0.00 1002.2
20260506105503 0 0.0 0.0 0.00 0.00 0.00 1002.2
20260506105002 0 0.0 0.0 0.00 0.00 0.00 1002.1
20260506104503 0 0.0 0.0 0.00 0.00 0.00 1002.0
20260506103502 0 0.0 0.0 0.00 0.00 0.00 1002.0
20260506103002 0 0.0 0.0 0.00 0.00 0.00 1002.0
20260506101507 0 0.0 0.0 0.00 0.00 0.00 1001.9
20260506100000 0 0.0 0.0 0.00 0.00 0.00 1001.9
20260506095505 0 0.0 0.0 0.00 0.00 0.00 1001.9
20260506095002 0 0.0 0.0 0.00 0.00 0.00 1001.8
20260506094500 0 0.0 0.0 0.00 0.00 0.00 1001.8
20260506094002 0 0.0 0.0 0.00 0.00 0.00 1001.8
20260506093502 0 0.0 0.0 0.00 0.00 0.00 1001.8
20260506093001 0 0.0 0.0 0.00 0.00 0.00 1001.7
20260506092501 0 0.0 0.0 0.00 0.00 0.00 1001.8
20260506092002 0 0.0 0.0 0.00 0.00 0.00 1001.8
20260506091501 0 0.0 0.0 0.00 0.00 0.00 1001.8
20260506090501 0 0.0 0.0 0.00 0.00 0.00 1001.9
20260506090002 0 0.0 0.0 0.00 0.00 0.00 1001.9
20260506085003 0 0.0 0.0 0.00 0.00 0.00 1001.9
20260506084501 55 236 0.0 0.0 0.00 0.00 0.00 74 1001.9
20260506083503 56 236 0.0 0.0 0.00 0.00 0.00 74 1001.7
20260506083003 56 236 0.0 0.0 0.00 0.00 0.00 74 1001.7
20260506082001 56 236 0.0 0.0 0.00 0.00 0.00 75 1001.6
20260506081503 56 236 0.0 0.0 0.00 0.00 0.00 75 1001.6
20260506081003 56 236 0.0 0.0 0.00 0.00 0.00 75 1001.6
20260506080503 56 236 0.0 0.0 0.00 0.00 0.00 75 1001.6
20260506073459 56 236 0.0 0.0 0.00 0.00 0.00 76 1001.4
20260506072958 56 236 0.0 0.0 0.00 0.00 0.00 76 1001.4
20260506072500 56 236 0.0 0.0 0.00 0.00 0.00 76 1001.4
20260506071959 56 236 0.0 0.0 0.00 0.00 0.00 76 1001.4
20260506071459 56 236 0.0 0.0 0.00 0.00 0.00 76 1001.4
20260506071000 56 236 0.0 0.0 0.00 0.00 0.00 76 1001.4
20260506070458 56 236 0.0 0.0 0.00 0.00 0.00 77 1001.4
20260506062501 56 236 0.0 0.0 0.00 0.00 0.00 77 1001.2
20260506062000 56 236 0.0 0.0 0.00 0.00 0.00 77 1001.3
20260506061501 57 236 0.0 0.0 0.00 0.00 0.00 77 1001.2
20260506050959 57 236 0.0 0.0 0.00 0.00 0.00 77 1000.8
20260506050458 57 236 0.0 0.0 0.00 0.00 0.00 77 1000.7
20260506044958 57 236 0.0 0.0 0.00 0.00 0.00 77 1000.5
20260506044459 57 236 0.0 0.0 0.00 0.00 0.00 77 1000.5
20260506044000 57 236 0.0 0.0 0.00 0.00 0.00 77 1000.5
20260506043501 57 236 0.0 0.0 0.00 0.00 0.00 77 1000.5
20260506042958 57 236 0.0 0.0 0.00 0.00 0.00 77 1000.5
20260506042459 57 236 0.0 0.0 0.00 0.00 0.00 77 1000.5
20260506041959 57 236 0.0 0.0 0.00 0.00 0.00 77 1000.4
20260506041459 57 236 0.0 0.0 0.00 0.00 0.00 77 1000.4
20260506040959 57 236 0.0 0.0 0.00 0.00 0.00 77 1000.3
20260506040459 57 236 0.0 0.0 0.00 0.00 0.00 77 1000.3
20260506035959 57 236 0.0 0.0 0.00 0.00 0.00 77 1000.2
20260506035459 58 236 0.0 0.0 0.00 0.00 0.00 77 1000.1
20260506035001 58 236 0.0 0.0 0.00 0.00 0.00 77 1000.0
20260506034459 58 236 0.0 0.0 0.00 0.00 0.00 77 999.9
20260506034000 58 236 0.0 0.0 0.00 0.00 0.00 77 999.8
20260506033500 58 236 0.0 0.0 0.00 0.00 0.00 77 999.8
20260506032959 58 236 0.0 0.0 0.00 0.00 0.00 77 999.7
20260506032458 58 236 0.0 3.0 0.00 0.00 0.00 77 999.7
20260506032000 58 236 3.0 3.0 0.00 0.00 0.00 77 999.7
20260506031459 58 250 2.0 2.0 0.00 0.00 0.00 77 999.7
20260506031000 58 250 0.0 1.0 0.00 0.00 0.00 77 999.5
20260506025459 58 250 0.0 2.0 0.00 0.00 0.00 77 999.4
20260506024958 58 250 0.0 2.0 0.00 0.00 0.00 77 999.4
20260506024458 58 250 0.0 4.0 0.00 0.00 0.00 77 999.4
20260506023959 58 250 0.0 4.0 0.00 0.00 0.00 77 999.4
20260506023458 58 261 1.0 4.0 0.00 0.00 0.00 77 999.4
20260506023000 58 267 0.0 4.0 0.00 0.00 0.00 77 999.3
20260506022458 58 274 0.0 3.0 0.00 0.00 0.00 77 999.2
20260506021958 59 257 0.0 4.0 0.00 0.00 0.00 76 999.2
20260506021459 59 258 1.0 4.0 0.00 0.00 0.00 76 999.2
20260506020959 59 252 0.0 4.0 0.00 0.00 0.00 76 999.2
20260506020458 59 253 1.0 3.0 0.00 0.00 0.00 76 999.2
20260506020001 59 258 0.0 3.0 0.00 0.00 0.00 76 999.1
20260506015458 59 300 0.0 3.0 0.00 0.00 0.00 76 999.0
20260506014959 60 310 0.0 3.0 0.00 0.00 0.00 76 999.0
20260506014459 60 312 1.0 4.0 0.00 0.00 0.00 75 999.0
20260506014001 60 285 1.0 4.0 0.00 0.00 0.00 75 998.9
20260506012959 60 252 0.0 7.0 0.00 0.00 0.00 75 998.9
20260506011458 61 315 0.0 5.0 0.00 0.00 0.00 75 998.9
20260506010959 61 250 2.0 5.0 0.00 0.00 0.00 75 998.9
20260506010459 61 254 1.0 6.0 0.00 0.00 0.00 75 998.9
20260506005459 61 252 1.0 5.0 0.00 0.00 0.00 75 998.9
20260506005002 61 242 3.0 6.0 0.00 0.00 0.00 75 999.0
20260506004458 61 223 3.0 6.0 0.00 0.00 0.00 74 998.9
20260506003959 61 283 4.0 7.0 0.00 0.00 0.00 74 998.9
20260506003501 61 257 3.0 7.0 0.00 0.00 0.00 74 999.0
20260506002959 61 279 2.0 6.0 0.00 0.00 0.00 73 999.0
20260506002500 62 237 1.0 6.0 0.00 0.00 0.00 72 999.0
20260506002000 63 247 0.0 5.0 0.00 0.00 0.00 72 999.0
20260506001500 63 280 0.0 6.0 0.00 0.00 0.00 73 999.0
20260506000500 63 257 3.0 6.0 0.00 0.00 0.00 71 998.9
20260506000008 63 277 1.0 7.0 0.00 0.00 0.00 71 998.9
20260505235506 63 236 2.0 7.0 0.00 0.00 0.00 70 999.0
20260505235002 63 250 1.0 8.0 0.00 0.00 0.00 71 999.0
20260505234501 63 223 1.0 10.0 0.00 0.00 0.00 71 999.0
20260505232959 64 253 1.0 6.0 0.00 0.00 0.00 71 999.0
20260505232459 64 236 3.0 6.0 0.00 0.00 0.00 71 999.0
20260505231959 64 246 1.0 5.0 0.00 0.00 0.00 70 999.0
20260505231501 64 300 3.0 5.0 0.00 0.00 0.00 70 999.0
20260505231002 64 308 1.0 5.0 0.00 0.00 0.00 71 999.1
20260505230503 63 258 2.0 5.0 0.00 0.00 0.00 72 999.1
20260505230000 64 304 5.0 6.0 0.00 0.00 0.00 70 999.2
20260505225459 64 208 4.0 7.0 0.00 0.00 0.00 71 999.2
20260505224502 64 312 1.0 7.0 0.00 0.00 0.00 73 999.1
20260505224000 65 258 1.0 7.0 0.00 0.00 0.00 70 999.2
20260505223505 63 267 1.0 8.0 0.00 0.00 0.00 71 999.3
20260505223000 64 213 3.0 8.0 0.00 0.00 0.00 70 999.3
20260505221458 65 250 1.0 6.0 0.00 0.00 0.00 69 999.2
20260505220958 64 260 2.0 5.0 0.00 0.00 0.00 70 999.2
20260505220000 65 275 4.0 8.0 0.00 0.00 0.00 70 999.3
20260505214001 65 215 6.0 6.0 0.00 0.00 0.00 72 999.4
20260505213502 65 240 1.0 5.0 0.00 0.00 0.00 70 999.4
20260505213000 64 225 3.0 5.0 0.00 0.00 0.00 71 999.4
20260505212459 64 262 2.0 5.0 0.00 0.00 0.00 72 999.4
20260505211501 64 255 0.0 7.0 0.00 0.00 0.00 71 999.5
20260505210502 65 248 2.0 6.0 0.00 0.00 0.00 72 999.4
20260505205502 64 260 0.0 9.0 0.00 0.00 0.00 71 999.6
20260505205000 64 304 2.0 6.0 0.00 0.00 0.00 73 999.6